FALCONSAT-6 (43815 NORAD) Tracking and Keplerian Element Data

This shows tracking and keplerian element data for the satellite.

Feedback or suggestion? Click here.




ElementValue
Catalog43815
NameFALCONSAT-6
Epoch Orbit33771
Epoch Day34.21238677
Epoch Year2025
RAAN108.1628
Inclination97.543
Eccentricity0.0020364
Argument of Perigee245.2616
Mean Anonmoly114.65
Mean Motion15.19779558
Decay Rate0.00044332
L11 43815U 18099BK 25034.21238677 .00044332 00000+0 20529-2 0 9993
L22 43815 97.5430 108.1628 0020364 245.2616 114.6500 15.19779558337713



Live tracking and technical data element details for FALCONSAT-6 (NORAD 43815). FALCONSAT-6 can be tracked NOW for your location showing map with azimuth and elevation plus other details from your city location.







IsCatalogInMostPopularTable: catalog: 43815, numindb: 374
Update: records affected: 1



GetName: 43815 FALCONSAT-6

Hit Count: updated at: Fri, 16 May 2025 11:43:09 GMT